Regional Weather Roundup
Issued by NWS

Home | Current Version | Previous Version | Graphics & Text | Print | Product List | Glossary On
Versions: 1 2 3 4 5 6 7 8 9 10 11 12 13 14 15 16 17 18 19 20 21 22 23 24 25 26 27 28 29 30 31 32 33 34 35 36 37 38 39 40 41 42 43 44 45 46 47 48 49 50
000
ASUS43 KDTX 192301
RWRMI
MICHIGAN HOURLY REGIONAL WEATHER ROUNDUP
NATIONAL WEATHER SERVICE DETROIT/PONTIAC MI
600 PM EST FRI DEC 19 2014

NOTE: "FAIR" INDICATES FEW OR NO CLOUDS BELOW 12,000 FEET WITH NO
SIGNIFICANT WEATHER AND/OR OBSTRUCTION TO VISIBILITY.

MIZ047>049-052>055-059>063-066>070-074>076-081>083-200000-
SOUTHEAST LOWER MICHIGAN

CITY           SKY/WX    TMP DP  RH WIND       PRES   REMARKS
ADRIAN         CLOUDY    30  22  72 S3        30.30R
ALMA           CLEAR     25  21  84 CALM      30.28S
ANN ARBOR      CLOUDY    28  21  75 CALM      30.28R
BAD AXE        CLEAR     23  20  91 CALM      30.29R
CARO           CLEAR     24  20  83 CALM      30.28R
DETROIT CITY   CLEAR     30  19  63 SW7       30.29R WCI  23
DETROIT        PTCLDY    25  19  78 W3        30.30R
FLINT          PTCLDY    28  19  69 W3        30.28R
GROSSE ILE     CLOUDY    28  21  74 NW6       30.28R WCI  22
HILLSDALE      CLOUDY    30  25  81 S3        30.27R
HOWELL         PTCLDY    25  19  80 SW3       30.27R

CITY           SKY/WX    TMP DP  RH WIND       PRES   REMARKS
JACKSON        CLOUDY    28  20  71 CALM      30.28R
LAMBERTVILLE   CLOUDY    32  25  74 CALM      30.29R
LANSING        CLEAR     25  19  78 SW6       30.29R WCI  18
LAPEER         FAIR      27  20  74 CALM      30.28R
MASON          CLOUDY    26  20  77 CALM      30.28R
MONROE         CLOUDY    28  23  80 CALM      30.28R
MT. CLEMENS    PTCLDY    27  21  77 CALM      30.26R
PONTIAC        CLEAR     27  18  69 W5        30.25R WCI  22
PORT HOPE        N/A     28  19  69 W5        30.27R WCI  23
PORT HURON     CLOUDY    28  21  74 CALM      30.29R
TRI CITIES     CLEAR     28  19  69 SW5       30.29R WCI  23
TROY           CLEAR     31  19  62 SW8       30.30R WCI  24
SAGINAW HB     CLEAR     30  19  64 CALM      30.29R
$$
MIZ043>046-050>051-056>058-064>065-071>073-077>080-200000-
SOUTHWEST LOWER MICHIGAN

CITY           SKY/WX    TMP DP  RH WIND       PRES   REMARKS
BATTLE CREEK   CLEAR     30  20  66 CALM      30.28R
BENTON HARBOR  CLOUDY    30  24  78 E3        30.31R
BIG RAPIDS     CLEAR     26  20  77 CALM      30.25S
COLDWATER      CLOUDY    29  23  79 MISG      30.28R
FREMONT        FAIR      26  15  61 CALM      30.27R
HOLLAND        CLEAR     28  21  75 CALM      30.30R
GRAND RAPIDS   PTCLDY    27  18  69 S5        30.28R WCI  22
IONIA          FAIR      28  23  83 S5        30.27R WCI  23
KALAMAZOO      PTCLDY    29  21  72 CALM      30.29R
LUDINGTON      CLEAR     26  22  86 CALM      30.29R
MARSHALL       CLOUDY    28  21  75 CALM      30.28R
MOUNT PLEASANT CLEAR     25  17  73 CALM      30.27R
MUSKEGON       CLEAR     28  17  63 W5        30.30R WCI  23
SOUTH HAVEN    CLEAR     28  20  72 CALM      30.31R
$$
MIZ016>042-200000-
NORTHERN LOWER MICHIGAN

CITY           SKY/WX    TMP DP  RH WIND       PRES   REMARKS
ALPENA         CLEAR     20  17  88 N5        30.29R WCI  13
BEAVER ISLAND  CLEAR     19  18  96 CALM      30.29R
BELLAIRE       CLOUDY    28  22  77 CALM      30.29R
CADILLAC       PTCLDY    21  19  89 CALM      30.24R
CHARLEVOIX     MOCLDY    22  20  91 CALM      30.31R
FRANKFORT      CLOUDY    29  23  78 CALM      30.28S
GAYLORD        CLEAR     22  15  75 NW3       30.24R
GRAYLING       CLEAR     22  19  86 W6        30.26R WCI  15
HARBOR SPRINGS CLEAR     22  17  80 CALM      30.28R
HOUGHTON LAKE  CLEAR     20  18  92 NW3       30.25R
MANISTEE       CLOUDY    28  19  69 CALM      30.29R
OSCODA         CLEAR     20  19  96 CALM      30.28R
PELLSTON       CLEAR     14  12  92 CALM      30.29R
ROGERS CITY    CLEAR     20  19  93 CALM      30.30R
TRAVERSE CITY  CLOUDY    30  20  66 CALM      30.27R
$$
MIZ007>008-015-200000-
EASTERN UPPER MICHIGAN

CITY           SKY/WX    TMP DP  RH WIND       PRES   REMARKS
KINROSS        PTCLDY    18  12  79 CALM      30.28R
MACKINAC ISLAN PTCLDY    19  16  89 CALM      30.27S
NEWBERRY       CLEAR     16  15  97 CALM      30.26R
S. S. MARIE    PTCLDY    20  12  71 S3        30.25R
MUNISING         N/A     31  20  63 NW3       30.27R
$$
MIZ004>006-011>014-085-200000-
CENTRAL UPPER MICHIGAN

CITY           SKY/WX    TMP DP  RH WIND       PRES   REMARKS
MANISTIQUE     CLOUDY    28  24  83 W3        30.27R
ESCANABA       CLOUDY    27  18  69 CALM      30.28R
MENOMINEE      PTCLDY    27  19  74 CALM      30.28R
SAWYER-GWINN   CLOUDY    27  21  80 CALM      30.24R
$$
MIZ001>003-009>011-084-200000-
WESTERN UPPER MICHIGAN

CITY           SKY/WX    TMP DP  RH WIND       PRES   REMARKS
IRON MOUNTAIN  CLEAR     17  13  84 CALM      30.23S
HOUGHTON       CLOUDY    24  17  74 CALM      30.23R
COPPER HARBOR    N/A     30  23  75 CALM      30.26R
IRONWOOD       CLOUDY    23  21  93 S6        30.19S WCI  16
$$

ABBREVIATIONS USED IN REMARKS
   TC - TEMPERATURE IN CELSIUS
  WCI - WIND CHILL INDEX
   HX - HEAT INDEX
  VSB - VISIBILITY



USA.gov is the U.S. government's official web portal to all federal, state and local government web resources and services.